TimeEDT,TemperatureF,Dew PointF,Humidity,Sea Level PressureIn,VisibilityMPH,Wind Direction,Wind SpeedMPH,Gust SpeedMPH,PrecipitationIn,Events,Conditions,WindDirDegrees,DateUTC
12:53 AM,73.9,73.9,100,29.89,10.0,West,3.5,-,N/A,,Clear,280,2012-10-20 04:53:00
1:53 AM,75.0,73.9,96,29.88,10.0,SSW,3.5,-,N/A,,Clear,210,2012-10-20 05:53:00
2:53 AM,75.0,73.9,96,29.87,10.0,WSW,4.6,-,N/A,,Clear,250,2012-10-20 06:53:00
3:53 AM,75.0,73.9,96,29.86,10.0,West,5.8,-,N/A,,Clear,260,2012-10-20 07:53:00
4:53 AM,73.9,73.9,100,29.86,10.0,West,4.6,-,N/A,,Clear,280,2012-10-20 08:53:00
5:53 AM,73.9,73.9,100,29.86,10.0,WNW,4.6,-,N/A,,Clear,290,2012-10-20 09:53:00
6:53 AM,73.9,73.9,100,29.88,10.0,West,3.5,-,N/A,,Clear,280,2012-10-20 10:53:00
7:53 AM,73.9,73.9,100,29.89,10.0,West,5.8,-,N/A,,Clear,280,2012-10-20 11:53:00
8:53 AM,75.9,72.0,87,29.92,10.0,NW,9.2,-,N/A,,Scattered Clouds,320,2012-10-20 12:53:00
9:53 AM,79.0,70.0,74,29.94,10.0,NNW,9.2,-,N/A,,Partly Cloudy,330,2012-10-20 13:53:00
10:53 AM,81.0,70.0,69,29.94,10.0,NNW,6.9,-,N/A,,Scattered Clouds,340,2012-10-20 14:53:00
11:53 AM,79.0,72.0,79,29.93,10.0,ENE,8.1,-,N/A,,Overcast,70,2012-10-20 15:53:00
12:26 PM,78.8,73.4,83,29.92,10.0,ENE,10.4,-,N/A,,Scattered Clouds,70,2012-10-20 16:26:00
12:53 PM,80.1,72.0,76,29.91,10.0,NE,8.1,-,N/A,,Scattered Clouds,40,2012-10-20 16:53:00
1:53 PM,82.0,72.0,71,29.88,10.0,NNE,11.5,-,N/A,,Scattered Clouds,30,2012-10-20 17:53:00
2:53 PM,81.0,73.0,77,29.87,10.0,NE,16.1,-,N/A,,Scattered Clouds,50,2012-10-20 18:53:00
3:53 PM,81.0,72.0,74,29.86,10.0,NE,15.0,-,N/A,,Clear,40,2012-10-20 19:53:00
4:53 PM,79.0,72.0,79,29.86,10.0,ENE,12.7,-,N/A,,Partly Cloudy,60,2012-10-20 20:53:00
5:53 PM,78.1,71.1,79,29.86,10.0,NE,9.2,-,N/A,,Clear,40,2012-10-20 21:53:00
6:53 PM,77.0,71.1,82,29.88,10.0,NE,9.2,-,N/A,,Clear,40,2012-10-20 22:53:00
7:53 PM,77.0,71.1,82,29.90,10.0,NE,8.1,-,N/A,,Clear,50,2012-10-20 23:53:00
8:53 PM,75.9,71.1,85,29.92,10.0,NE,5.8,-,N/A,,Clear,50,2012-10-21 00:53:00
9:53 PM,75.9,71.1,85,29.93,10.0,NE,3.5,-,N/A,,Clear,50,2012-10-21 01:53:00
10:53 PM,73.9,71.1,91,29.94,10.0,NNW,3.5,-,N/A,,Partly Cloudy,340,2012-10-21 02:53:00
11:22 PM,73.4,71.6,94,29.94,10.0,NNW,4.6,-,N/A,,Mostly Cloudy,330,2012-10-21 03:22:00
11:35 PM,73.4,71.6,94,29.94,10.0,NNW,4.6,-,N/A,,Scattered Clouds,340,2012-10-21 03:35:00
11:53 PM,73.0,72.0,96,29.94,10.0,NNW,4.6,-,N/A,,Clear,340,2012-10-21 03:53:00